Regional Weather Roundup
Issued by NWS Jackson, KY

Home | Current Version | Previous Version | Text Only | Print | Product List | Glossary On
Versions: 1 2 3 4 5 6 7 8 9 10 11 12 13 14 15 16 17 18 19 20 21 22 23 24 25 26 27 28 29 30 31 32 33 34 35 36 37 38 39 40 41 42 43 44 45 46 47 48 49 50
000
ASUS43 KJKL 160819
RWRJKL

EAST KENTUCKY HOURLY WEATHER ROUNDUP
NATIONAL WEATHER SERVICE JACKSON KY
400 AM EDT WED APR 16 2014

NOTE: "FAIR" INDICATES FEW OR NO CLOUDS BELOW 12,000 FEET WITH
NO SIGNIFICANT WEATHER AND/OR OBSTRUCTIONS TO VISIBILITY.

* THESE REPORTS ARE NOT UNDER NWS QUALITY CONTROL AND MAY NOT
  REPORT WEATHER SUCH AS PRECIPITATION AND FOG.

KYZ079-080-083-085-087-088-110-112-115-119-120-160900
...EASTERN KENTUCKY...

CITY           SKY/WX    TMP DP  RH WIND       PRES   REMARKS
JACKSON        CLEAR     28  19  69 NE5       30.27R WCI  23
LONDON         CLEAR     29  22  75 N3        30.27R
SOMERSET*      CLEAR     28  23  80 CALM      30.31R
MONTICELLO*    CLEAR     78  75  90 CALM      30.31R
WILLIAMSBURG*  CLEAR     28  23  80 CALM      30.28R
MIDDLESBORO*   CLEAR     29  24  81 CALM      30.28R
HARLAN APT*    SUNNY     30  23  74 N6        30.26R WCI  24
BLACK MTN*       N/A     18  18 100 N6          N/A  WCI   9
PIKEVILLE APT* CLEAR     27  19  74 N3        30.28R
BIG SANDY*     SUNNY     29  20  69 CALM      30.29R
ASHLAND*       CLEAR     27  19  74 CALM      30.32R
MOREHEAD APT*    N/A     28  18  64 MISG      30.33R
$$

KYZ035-036-041-042-044-050-067-078-099-160900
...CENTRAL KENTUCKY...

CITY           SKY/WX    TMP DP  RH WIND       PRES   REMARKS
MT STERLING*   CLEAR     28  23  80 NE3       30.32R
FLEMING/MASON* CLEAR     28  18  64 NE3       30.33R
DANVILLE*      CLEAR     27  23  86 CALM      30.31R
RICHMOND*      CLEAR     28  19  69 CALM      30.30R
LEXINGTON      CLEAR     30  19  63 E5        30.30R WCI  25
FRANKFORT      CLEAR     26  22  84 CALM      30.30R
$$

KYZ091>093-OHZ055-061-077-WVZ005-015-034-035-042-160900
...SOUTHERN OHIO/WEST VIRGINIA...

CITY           SKY/WX    TMP DP  RH WIND       PRES   REMARKS
COVINGTON      CLEAR     29  17  61 E5        30.31R WCI  24
COLUMBUS       CLEAR     29  15  56 N3        30.30R
DAYTON         CLEAR     28  15  58 CALM      30.31R
WILMINGTON     CLEAR     25  16  68 CALM      30.30R
HUNTINGTON     CLEAR     28  19  69 CALM      30.30R
CHARLESTON     CLEAR     29  21  72 CALM      30.29R
PINEVILLE*     CLEAR     29  22  75 MISG      30.28R
BECKLEY        MOCLDY    24  14  65 N10       30.18R WCI  14
BLUEFIELD      PTCLDY    26  13  57 NW6       30.16R WCI  19
$$

VAZ002-007-008-TNZ017-027-036-066-071-160900
...SOUTHWEST VIRGINIA/EAST TENNESSEE...

CITY           SKY/WX    TMP DP  RH WIND       PRES   REMARKS
WISE*          CLEAR     27  18  69 N5        30.20R WCI  21
ABINGDON*      CLEAR     30  17  58 CALM      30.20R
BRISTOL        CLEAR     29  17  61 N5        30.25R WCI  24
KNOXVILLE      CLEAR     33  21  61 N9        30.25R WCI  25
OAK RIDGE      CLEAR     31  26  82 CALM      30.29R
CROSSVILLE     CLEAR     30  21  69 NE7       30.22S WCI  23
NASHVILLE      CLEAR     34  23  64 N5        30.29R WCI  30
$$

...KEY TO REMARKS...
VSB - VISIBILITY IN MILES
WCI - WIND CHILL INDEX
HX  - HEAT INDEX

$$



USA.gov is the U.S. government's official web portal to all federal, state and local government web resources and services.